Tracking 29892 objects as of 21-Nov-2024
HD Live streaming from Space Station
objects crossing your sky now

STARLINK-2486

Track STARLINK-2486 now!
10-day predictions
STARLINK-2486 is classified as:


NORAD ID: 48143
Int'l Code: 2021-027BD
Perigee: 553.5 km
Apogee: 555.1 km
Inclination: 53.1 °
Period: 95.6 minutes
Semi major axis: 6925 km
RCS: Unknown
Launch date: April 7, 2021
Source: United States (US)
Launch site: AIR FORCE EASTERN TEST RANGE (AFETR)
Your satellite tracking list
Your tracking list is empty




NASA's NSSDC Master Catalog

Two Line Element Set (TLE):
1 48143U 21027BD  24325.31350971  .00007030  00000-0  48997-3 0  9997
2 48143  53.0537  76.2691 0001159  93.7898 266.3223 15.06427615201820
Source of the keplerian elements: AFSPC